DW1256 Weather Reports


Display with metric or nautical units.
time (UTC)temp
F
wind
direction
speed
MPH
gust
MPH
rain 1hr
in
rain 24hr
in
rain mn
in
humidity
%
barometer
mb
20260905234613 80 5 6.0 16.0 0.00 0.00 0.00 61 1012.3
20260905234105 80 39 6.0 16.0 0.00 0.00 0.00 61 1012.1
20260905233601 81 40 6.0 12.0 0.00 0.00 0.00 60 1012.2
20260905232547 81 33 7.0 13.0 0.00 0.00 0.00 59 1012.2
20260905232041 82 26 6.0 13.0 0.00 0.00 0.00 59 1012.1
20260905231535 82 28 5.0 13.0 0.00 0.00 0.00 58 1011.9
20260905231029 83 51 5.0 13.0 0.00 0.00 0.00 58 1011.8
20260905230525 83 42 5.0 13.0 0.00 0.00 0.00 58 1011.8
20260905230017 83 28 5.0 13.0 0.00 0.00 0.00 57 1011.7
20260905225516 83 34 6.0 13.0 0.00 0.00 0.00 56 1011.6
20260905225005 84 19 6.0 14.0 0.00 0.00 0.00 56 1011.6
20260905224458 84 87 6.0 14.0 0.00 0.00 0.00 56 1011.7
20260905223955 84 41 7.0 16.0 0.00 0.00 0.00 56 1011.6
20260905223446 85 86 6.0 16.0 0.00 0.00 0.00 55 1011.6
20260905222435 85 56 7.0 13.0 0.00 0.00 0.00 55 1011.6
20260905221931 86 68 7.0 13.0 0.00 0.00 0.00 55 1011.5
20260905221423 86 40 6.0 12.0 0.00 0.00 0.00 54 1011.5
20260905220917 86 53 7.0 14.0 0.00 0.00 0.00 55 1011.3
20260905220410 86 25 7.0 15.0 0.00 0.00 0.00 54 1011.3
20260905215358 88 59 5.0 15.0 0.00 0.00 0.00 54 1011.1
20260905214854 88 34 5.0 14.0 0.00 0.00 0.00 52 1011.1
20260905213335 88 312 5.0 11.0 0.00 0.00 0.00 53 1011.2
20260905212830 89 59 5.0 11.0 0.00 0.00 0.00 52 1011.1
20260905211817 90 18 6.0 14.0 0.00 0.00 0.00 51 1011.1
20260905210805 91 339 5.0 11.0 0.00 0.00 0.00 52 1011.1
20260905210259 91 340 4.0 13.0 0.00 0.00 0.00 52 1011.1
20260905205752 91 346 5.0 14.0 0.00 0.00 0.00 52 1011.0
20260905204740 91 13 5.0 13.0 0.00 0.00 0.00 53 1010.9
20260905204236 90 25 5.0 13.0 0.00 0.00 0.00 53 1010.8
20260905203729 90 46 4.0 11.0 0.00 0.00 0.00 52 1010.8
20260905203223 92 355 5.0 12.0 0.00 0.00 0.00 51 1010.9
20260905202718 92 347 5.0 12.0 0.00 0.00 0.00 51 1011.0
20260905202211 92 28 5.0 12.0 0.00 0.00 0.00 52 1011.0
20260905201706 92 304 5.0 12.0 0.00 0.00 0.00 50 1011.1
20260905200652 93 41 5.0 12.0 0.00 0.00 0.00 50 1011.0
20260905200147 93 28 6.0 12.0 0.00 0.00 0.00 51 1010.9
20260905195642 92 295 5.0 11.0 0.00 0.00 0.00 51 1010.9
20260905195135 93 5 4.0 10.0 0.00 0.00 0.00 51 1010.9
20260905194630 92 298 5.0 12.0 0.00 0.00 0.00 51 1011.0
20260905194123 92 327 5.0 12.0 0.00 0.00 0.00 51 1011.1
20260905193111 93 312 3.0 8.0 0.00 0.00 0.00 49 1011.2
20260905192604 93 355 3.0 8.0 0.00 0.00 0.00 49 1011.2
20260905192059 93 340 3.0 8.0 0.00 0.00 0.00 52 1011.1
20260905191553 92 340 4.0 9.0 0.00 0.00 0.00 51 1011.2
20260905191046 92 42 4.0 9.0 0.00 0.00 0.00 53 1011.2
20260905190545 91 336 4.0 12.0 0.00 0.00 0.00 52 1011.4
20260905190044 92 335 4.0 12.0 0.00 0.00 0.00 51 1011.4
20260905185042 94 34 3.0 8.0 0.00 0.00 0.00 49 1011.4
20260905184041 92 305 4.0 10.0 0.00 0.00 0.00 53 1011.7
20260905183542 92 330 3.0 10.0 0.00 0.00 0.00 51 1011.7
20260905183044 92 341 3.0 7.0 0.00 0.00 0.00 54 1011.6
20260905182540 92 328 3.0 8.0 0.00 0.00 0.00 52 1011.7
20260905181537 93 325 3.0 10.0 0.00 0.00 0.00 51 1011.7
20260905180537 91 355 3.0 6.0 0.00 0.00 0.00 52 1011.7
20260905180039 92 17 1.0 6.0 0.00 0.00 0.00 54 1011.7
20260905175538 92 300 2.0 6.0 0.00 0.00 0.00 52 1011.8
20260905175038 90 332 3.0 10.0 0.00 0.00 0.00 53 1011.8
20260905174538 91 309 3.0 10.0 0.00 0.00 0.00 53 1011.8
20260905174039 91 296 3.0 7.0 0.00 0.00 0.00 54 1011.8
20260905173027 91 343 2.0 8.0 0.00 0.00 0.00 54 1011.9
20260905172015 91 355 3.0 8.0 0.00 0.00 0.00 52 1012.0
20260905171003 91 290 2.0 8.0 0.00 0.00 0.00 51 1012.1
20260905170459 91 351 2.0 6.0 0.00 0.00 0.00 51 1012.1
20260905165953 91 325 3.0 6.0 0.00 0.00 0.00 52 1012.2
20260905165447 90 306 2.0 6.0 0.00 0.00 0.00 53 1012.2
20260905164939 90 257 2.0 6.0 0.00 0.00 0.00 54 1012.2
20260905164433 90 329 3.0 6.0 0.00 0.00 0.00 53 1012.2
20260905163927 90 0 3.0 7.0 0.00 0.00 0.00 54 1012.3
20260905163422 90 286 3.0 8.0 0.00 0.00 0.00 54 1012.3
20260905162915 89 335 3.0 8.0 0.00 0.00 0.00 55 1012.3
20260905162409 89 311 4.0 8.0 0.00 0.00 0.00 55 1012.3
20260905161903 89 310 5.0 9.0 0.00 0.00 0.00 53 1012.3
20260905161357 89 285 5.0 10.0 0.00 0.00 0.00 53 1012.3
20260905160852 90 292 5.0 10.0 0.00 0.00 0.00 51 1012.3
20260905155839 89 315 4.0 12.0 0.00 0.00 0.00 52 1012.3
20260905155334 89 307 3.0 7.0 0.00 0.00 0.00 56 1012.2
20260905154829 89 312 3.0 8.0 0.00 0.00 0.00 56 1012.1
20260905153816 89 329 3.0 11.0 0.00 0.00 0.00 55 1012.1
20260905153314 88 289 1.0 6.0 0.00 0.00 0.00 56 1012.2
20260905152803 88 313 1.0 6.0 0.00 0.00 0.00 56 1012.2
20260905152257 88 302 2.0 7.0 0.00 0.00 0.00 58 1012.2
20260905151752 88 275 2.0 7.0 0.00 0.00 0.00 57 1012.2
20260905151245 87 0 2.0 6.0 0.00 0.00 0.00 58 1012.1
20260905150739 86 283 3.0 6.0 0.00 0.00 0.00 59 1012.2
20260905150234 86 292 2.0 5.0 0.00 0.00 0.00 59 1012.1
20260905145727 86 328 2.0 5.0 0.00 0.00 0.00 60 1012.1
20260905144715 85 315 2.0 4.0 0.00 0.00 0.00 60 1012.0
20260905144210 86 5 2.0 5.0 0.00 0.00 0.00 60 1012.0
20260905143704 85 13 2.0 5.0 0.00 0.00 0.00 61 1011.9
20260905143156 85 346 2.0 5.0 0.00 0.00 0.00 62 1011.9
20260905142148 83 341 2.0 6.0 0.00 0.00 0.00 63 1012.1
20260905141649 83 52 2.0 6.0 0.00 0.00 0.00 64 1012.2
20260905141149 83 313 3.0 6.0 0.00 0.00 0.00 63 1012.3
20260905140146 83 336 2.0 4.0 0.00 0.00 0.00 64 1012.1
20260905135643 83 331 1.0 5.0 0.00 0.00 0.00 65 1012.1
20260905135139 82 0 2.0 5.0 0.00 0.00 0.00 65 1012.1
20260905134641 82 323 1.0 3.0 0.00 0.00 0.00 65 1012.0
20260905133640 81 274 0.0 0.0 0.00 0.00 0.00 65 1011.9
20260905133142 81 273 0.0 0.0 0.00 0.00 0.00 66 1011.9
20260905132639 80 274 0.0 0.0 0.00 0.00 0.00 67 1011.9
20260905131638 80 274 0.0 0.0 0.00 0.00 0.00 70 1011.8
20260905131136 79 274 0.0 0.0 0.00 0.00 0.00 73 1011.8
20260905130637 78 274 0.0 0.0 0.00 0.00 0.00 74 1011.8
20260905130137 78 274 0.0 0.0 0.00 0.00 0.00 74 1011.8
20260905125634 77 274 0.0 0.0 0.00 0.00 0.00 74 1011.8
20260905124629 77 274 0.0 0.0 0.00 0.00 0.00 74 1011.8
20260905124129 76 273 0.0 0.0 0.00 0.00 0.00 74 1011.8
20260905123125 76 273 0.0 0.0 0.00 0.00 0.00 74 1011.7
20260905122621 76 273 0.0 0.0 0.00 0.00 0.00 73 1011.7
20260905122121 76 273 0.0 0.0 0.00 0.00 0.00 73 1011.7
20260905121622 76 273 0.0 0.0 0.00 0.00 0.00 73 1011.7
20260905121120 75 273 0.0 0.0 0.00 0.00 0.00 73 1011.7
20260905120620 75 273 0.0 0.0 0.00 0.00 0.00 73 1011.6
20260905120115 75 274 0.0 0.0 0.00 0.00 0.00 73 1011.6
20260905115620 75 273 0.0 0.0 0.00 0.00 0.00 73 1011.6
20260905115115 75 273 0.0 0.0 0.00 0.00 0.00 73 1011.5
20260905114614 75 273 0.0 0.0 0.00 0.00 0.00 72 1011.5
20260905114113 75 273 0.0 0.0 0.00 0.00 0.00 72 1011.4
20260905113610 76 273 0.0 0.0 0.00 0.00 0.00 72 1011.4
20260905113110 76 274 0.0 0.0 0.00 0.00 0.00 72 1011.5
20260905112610 76 273 0.0 0.0 0.00 0.00 0.00 72 1011.4
20260905112109 76 273 0.0 0.0 0.00 0.00 0.00 72 1011.4
20260905111608 76 273 0.0 0.0 0.00 0.00 0.00 72 1011.4
20260905111110 76 274 0.0 0.0 0.00 0.00 0.00 72 1011.3
20260905110612 76 273 0.0 0.0 0.00 0.00 0.00 72 1011.3
20260905110109 76 273 0.0 0.0 0.00 0.00 0.00 72 1011.3
20260905105607 76 273 0.0 0.0 0.00 0.00 0.00 71 1011.2
20260905105104 76 274 0.0 0.0 0.00 0.00 0.00 71 1011.3
20260905104604 76 274 0.0 0.0 0.00 0.00 0.00 71 1011.2
20260905104106 76 273 0.0 1.0 0.00 0.00 0.00 71 1011.3
20260905103605 76 273 0.0 1.0 0.00 0.00 0.00 71 1011.3
20260905103101 76 273 0.0 1.0 0.00 0.00 0.00 71 1011.4
20260905102602 76 273 0.0 0.0 0.00 0.00 0.00 71 1011.3
20260905101602 77 273 0.0 0.0 0.00 0.00 0.00 71 1011.5
20260905101103 77 273 0.0 0.0 0.00 0.00 0.00 71 1011.5
20260905100605 77 273 0.0 0.0 0.00 0.00 0.00 71 1011.4
20260905095602 77 273 0.0 0.0 0.00 0.00 0.00 71 1011.2
20260905095102 77 273 0.0 0.0 0.00 0.00 0.00 71 1011.3
20260905094602 77 274 0.0 1.0 0.00 0.00 0.00 71 1011.2
20260905094101 77 274 0.0 1.0 0.00 0.00 0.00 71 1011.2
20260905093601 77 274 0.0 1.0 0.00 0.00 0.00 71 1011.3
20260905093103 77 274 0.0 1.0 0.00 0.00 0.00 71 1011.4
20260905092602 77 274 0.0 1.0 0.00 0.00 0.00 71 1011.3
20260905092102 77 274 0.0 3.0 0.00 0.00 0.00 71 1011.3
20260905091603 77 273 0.0 3.0 0.00 0.00 0.00 71 1011.4
20260905090602 77 274 0.0 0.0 0.00 0.00 0.00 71 1011.3
20260905090103 78 274 0.0 0.0 0.00 0.00 0.00 71 1011.3
20260905085601 78 274 0.0 2.0 0.00 0.00 0.00 71 1011.3
20260905085101 78 275 1.0 3.0 0.00 0.00 0.00 71 1011.2
20260905084602 78 275 1.0 3.0 0.00 0.00 0.00 71 1011.2
20260905084102 78 274 1.0 4.0 0.00 0.00 0.00 71 1011.3
20260905083603 78 274 1.0 4.0 0.00 0.00 0.00 71 1011.3
20260905082559 78 283 0.0 0.0 0.00 0.00 0.00 71 1011.3
20260905082057 78 311 0.0 3.0 0.00 0.00 0.00 71 1011.2
20260905081559 78 291 1.0 3.0 0.00 0.00 0.00 71 1011.2
20260905081101 78 291 1.0 3.0 0.00 0.00 0.00 71 1011.1
20260905080600 78 291 1.0 3.0 0.00 0.00 0.00 71 1011.1
20260905080100 78 291 1.0 3.0 0.00 0.00 0.00 71 1011.1
20260905075600 78 291 1.0 3.0 0.00 0.00 0.00 72 1011.0
20260905075100 78 292 1.0 3.0 0.00 0.00 0.00 72 1011.1
20260905074601 78 300 1.0 4.0 0.00 0.00 0.00 72 1011.1
20260905074058 78 278 1.0 4.0 0.00 0.00 0.00 72 1011.0
20260905073057 78 281 1.0 4.0 0.00 0.00 0.00 72 1011.0
20260905072554 78 265 1.0 4.0 0.00 0.00 0.00 72 1010.9
20260905072055 78 269 1.0 4.0 0.00 0.00 0.00 71 1011.0
20260905071555 78 307 0.0 2.0 0.00 0.00 0.00 71 1011.2
20260905071057 78 307 0.0 2.0 0.00 0.00 0.00 71 1011.2
20260905070553 78 307 0.0 2.0 0.00 0.00 0.00 71 1011.3
20260905070055 78 307 0.0 0.0 0.00 0.00 0.00 71 1011.3
20260905065551 78 307 0.0 0.0 0.00 0.00 0.00 71 1011.3
20260905065052 78 307 0.0 0.0 0.00 0.00 0.00 71 1011.4
20260905064551 78 307 0.0 0.0 0.00 0.00 0.00 71 1011.3
20260905064051 78 307 0.0 0.0 0.00 0.00 0.00 70 1011.4
20260905063550 78 307 0.0 0.0 0.00 0.00 0.00 70 1011.4
20260905063050 78 307 0.0 0.0 0.00 0.00 0.00 70 1011.5
20260905062551 78 307 0.0 0.0 0.00 0.00 0.00 70 1011.5
20260905062051 78 307 0.0 0.0 0.00 0.00 0.00 70 1011.5
20260905061551 78 307 0.0 0.0 0.00 0.00 0.00 70 1011.6
20260905061047 78 307 0.0 0.0 0.00 0.00 0.00 70 1011.6
20260905060547 78 307 0.0 0.0 0.00 0.00 0.00 70 1011.7
20260905060046 78 307 0.0 0.0 0.00 0.00 0.00 70 1011.7
20260905055546 78 307 0.0 0.0 0.00 0.00 0.00 69 1011.7
20260905055046 78 307 0.0 0.0 0.00 0.00 0.00 69 1011.7
20260905054545 79 307 0.0 0.0 0.00 0.00 0.00 69 1011.7
20260905054046 79 307 0.0 0.0 0.00 0.00 0.00 69 1011.7
20260905053546 79 307 0.0 0.0 0.00 0.00 0.00 69 1011.8
20260905053049 79 307 0.0 0.0 0.00 0.00 0.00 69 1011.8
20260905052543 79 307 0.0 0.0 0.00 0.00 0.00 69 1011.8
20260905052043 79 307 0.0 0.0 0.00 0.00 0.00 69 1011.9
20260905051543 79 307 0.0 0.0 0.00 0.00 0.00 69 1012.0
20260905050043 80 307 0.0 0.0 0.00 0.00 0.00 68 1012.0
20260905045542 80 307 0.0 0.0 0.00 0.00 0.00 68 1012.1
20260905045040 80 307 0.0 0.0 0.00 0.00 0.00 68 1012.1
20260905044542 80 307 0.0 0.0 0.00 0.00 0.00 68 1011.9
20260905043540 80 307 0.0 0.0 0.00 0.00 0.00 68 1011.9
20260905043042 80 307 0.0 0.0 0.00 0.00 0.00 68 1012.0
20260905042540 80 307 0.0 0.0 0.00 0.00 0.00 68 1012.1
20260905042038 81 307 0.0 0.0 0.00 0.00 0.00 68 1012.0
20260905041539 81 307 0.0 0.0 0.00 0.00 0.00 67 1012.0
20260905041038 81 307 0.0 0.0 0.00 0.00 0.00 68 1012.1
20260905040539 81 307 0.0 0.0 0.00 0.00 0.00 67 1012.1
20260905040039 81 308 0.0 0.0 0.00 0.00 0.00 67 1012.1
20260905035536 81 307 0.0 0.0 0.00 0.00 0.00 67 1012.1
20260905035036 81 307 0.0 0.0 0.00 0.00 0.00 67 1012.1
20260905034537 81 308 0.0 0.0 0.00 0.00 0.00 67 1012.1
20260905034032 81 308 0.0 0.0 0.00 0.00 0.00 67 1012.0
20260905033533 81 308 0.0 0.0 0.00 0.00 0.00 67 1012.1
20260905033033 81 308 0.0 0.0 0.00 0.00 0.00 67 1012.1
20260905032528 81 308 0.0 0.0 0.00 0.00 0.00 67 1012.2
20260905032021 82 308 0.0 0.0 0.00 0.00 0.00 67 1012.2
20260905031514 82 307 0.0 0.0 0.00 0.00 0.00 67 1012.2
20260905030504 82 307 0.0 0.0 0.00 0.00 0.00 67 1012.0
20260905024945 82 308 0.0 0.0 0.00 0.00 0.00 66 1011.8
20260905024441 82 308 0.0 0.0 0.00 0.00 0.00 66 1011.8
20260905023940 82 307 0.0 0.0 0.00 0.00 0.00 66 1011.8
20260905023440 82 307 0.0 0.0 0.00 0.00 0.00 66 1011.8
20260905022939 82 308 0.0 0.0 0.00 0.00 0.00 66 1012.0
20260905021936 83 308 0.0 0.0 0.00 0.00 0.00 66 1011.8
20260905021438 83 307 0.0 0.0 0.00 0.00 0.00 65 1011.8
20260905020938 83 307 0.0 0.0 0.00 0.00 0.00 65 1011.8
20260905015936 83 307 0.0 0.0 0.00 0.00 0.00 65 1011.8
20260905015436 83 307 0.0 0.0 0.00 0.00 0.00 65 1011.8
20260905014936 83 307 0.0 0.0 0.00 0.00 0.00 64 1011.7
20260905014433 84 307 0.0 0.0 0.00 0.00 0.00 64 1011.6
20260905013933 84 307 0.0 0.0 0.00 0.00 0.00 64 1011.5
20260905013434 84 307 0.0 0.0 0.00 0.00 0.00 64 1011.5
20260905012932 84 307 0.0 0.0 0.00 0.00 0.00 63 1011.5
20260905012432 84 307 0.0 0.0 0.00 0.00 0.00 63 1011.5
20260905011932 85 307 0.0 0.0 0.00 0.00 0.00 63 1011.5
20260905011430 85 307 0.0 0.0 0.00 0.00 0.00 63 1011.4
20260905010923 85 307 0.0 0.0 0.00 0.00 0.00 63 1011.4
20260905010417 85 307 0.0 0.0 0.00 0.00 0.00 62 1011.4
20260905005914 86 307 0.0 0.0 0.00 0.00 0.00 61 1011.4
20260905005405 87 307 0.0 0.0 0.00 0.00 0.00 60 1011.2
20260905004859 87 307 0.0 0.0 0.00 0.00 0.00 59 1011.2
20260905004354 87 307 0.0 0.0 0.00 0.00 0.00 58 1011.2
20260905003848 88 307 0.0 0.0 0.00 0.00 0.00 58 1011.2
20260905002835 90 308 0.0 0.0 0.00 0.00 0.00 54 1011.2
20260905002334 91 308 0.0 0.0 0.00 0.00 0.00 54 1011.2
20260905001820 91 307 0.0 0.0 0.00 0.00 0.00 54 1011.2
20260905000807 92 308 0.0 0.0 0.00 0.00 0.00 52 1011.2
20260905000303 92 315 0.0 0.0 0.00 0.00 0.00 51 1011.2
20260904235249 92 275 0.0 0.0 0.00 0.00 0.00 51 1011.2